Lid_Strength_Index
4 3 3 2 1 0 0 -1 -2 -2 -2 -2 -1 -1 -1 -1 -1 1 4 3 2 -1 -0 3 2 3 3 5 5 10 13 15 14 13 11 9 9 7 6 7 7 7 6 4 2
4 3 3 2 0 0 -1 -1 -2 -2 -2 -2 -2 -1 -1 -1 2 4 0 -0 -1 -1 2 4 5 4 6 7 7 11 13 13 12 11 11 11 8 8 8 8 8 7 5 3 3
4 3 2 1 0 -0 -1 -2 -2 -2 -2 -2 -1 -0 -1 -0 5 4 -1 -1 -1 -0 1 4 5 5 8 7 8 10 11 11 10 10 9 10 9 7 8 11 8 8 6 4 4
4 3 2 1 -0 -1 -1 -2 -2 -2 -2 -1 -1 -1 -1 1 12 2 -1 -1 1 1 3 4 6 8 9 10 7 10 10 10 9 8 9 9 7 9 7 8 5 5 5 4 5
4 3 2 0 -0 -1 -2 -2 -2 -2 -2 -1 -1 -1 1 6 6 -0 -1 0 2 3 5 6 8 7 10 9 8 11 9 9 9 8 9 7 8 8 8 6 5 4 5 5 5
4 3 2 0 -0 -1 -2 -2 -2 -2 -1 -1 -1 -1 3 9 1 0 1 2 3 4 6 5 8 5 8 9 9 9 9 10 9 9 9 8 9 8 8 5 6 5 5 5 5
4 3 2 0 -0 -1 -2 -2 -2 -1 -1 -1 -1 1 4 6 1 1 2 4 3 3 7 5 6 7 6 9 6 9 11 11 11 10 10 7 11 10 7 6 7 6 6 5 4
4 3 2 0 -0 -1 -2 -2 -2 -1 -1 -1 -1 2 7 0 1 2 2 3 2 3 5 4 5 7 7 6 9 12 12 14 11 10 10 9 14 10 7 7 7 7 6 6 5
4 4 2 1 -0 -1 -1 -1 -1 -1 -1 -1 2 4 8 -0 3 2 2 4 3 5 4 3 5 7 8 10 13 14 15 15 13 10 10 10 13 9 7 7 8 7 6 6 5
4 4 3 1 1 -0 -0 -0 -1 0 1 0 1 7 5 7 4 2 2 3 5 6 6 7 9 10 10 11 16 15 15 16 15 12 10 12 13 9 8 8 8 7 7 6 6
5 4 3 2 1 1 3 4 7 7 5 7 7 7 6 5 2 3 2 4 5 6 11 10 12 14 12 10 11 13 14 15 15 11 11 11 12 10 8 8 8 8 7 7 6
5 4 4 3 3 2 5 7 6 6 10 5 5 5 5 4 8 6 4 8 9 11 9 12 14 10 9 10 12 14 15 16 13 11 11 12 13 10 9 8 8 8 7 7 6
5 5 4 4 4 6 8 8 4 4 11 9 8 8 8 7 9 10 6 8 10 11 11 13 12 9 9 12 13 15 14 15 14 12 11 11 14 13 9 8 7 7 7 6 6
5 5 5 5 8 9 10 7 5 6 17 14 12 10 9 9 11 5 5 9 9 12 11 11 11 10 12 13 12 16 13 12 13 14 17 14 17 15 11 11 9 8 7 7 6
5 5 5 6 10 11 9 8 6 11 23 14 13 8 10 11 9 8 5 7 11 11 10 12 12 12 13 13 12 15 12 12 12 14 15 15 17 16 11 13 11 9 8 7 6
5 5 6 10 10 9 8 8 11 21 25 18 13 14 14 11 10 7 7 7 7 10 10 11 10 11 12 11 12 11 12 12 13 14 17 16 17 17 14 12 11 9 8 7 6
5 5 9 9 12 9 9 13 22 26 16 18 17 15 15 15 13 10 11 13 13 15 14 11 11 10 10 12 11 12 13 18 19 19 19 17 17 16 13 9 8 9 8 7 6
6 8 10 10 10 9 12 18 26 20 19 15 16 16 18 16 14 13 14 16 13 14 15 18 17 11 10 12 14 14 15 17 22 22 20 18 19 15 13 10 8 7 7 6 6
9 13 13 11 10 11 15 23 23 20 17 18 17 20 19 18 16 16 16 17 15 14 17 16 16 11 11 12 12 15 16 15 18 20 20 19 17 14 12 12 12 10 8 7 6
15 16 15 12 12 13 19 20 18 16 16 17 22 21 24 22 20 21 18 15 15 13 12 14 17 12 11 11 11 13 13 16 18 22 22 21 20 17 15 14 12 15 15 14 12
18 19 15 13 13 17 25 20 17 15 15 18 20 22 23 24 26 24 20 15 13 13 12 13 14 15 13 14 15 14 15 15 15 17 21 22 20 15 15 15 15 16 16 15 16
18 21 15 15 20 24 24 18 15 16 15 17 17 18 20 19 22 23 21 18 13 13 14 12 14 17 16 12 12 13 15 15 18 18 18 19 19 16 16 16 15 16 15 15 15
21 21 16 17 25 28 19 18 17 17 17 17 18 18 17 19 21 19 17 14 14 14 14 12 15 19 17 13 13 14 14 14 15 16 18 19 18 16 16 17 17 17 16 16 15
21 23 20 19 21 23 23 21 20 16 17 16 17 16 18 20 18 19 19 16 15 15 12 11 13 16 18 16 14 15 15 15 15 18 18 17 18 18 17 17 18 18 17 17 17
21 25 26 26 24 29 25 26 25 23 18 16 18 18 18 22 20 20 19 18 15 14 16 16 18 15 15 13 13 14 14 14 15 16 17 17 16 17 18 18 19 18 18 18 17
21 23 24 31 30 28 25 28 25 22 21 22 22 19 20 24 21 24 20 19 20 17 18 17 19 16 16 13 14 14 15 14 14 15 16 16 18 19 19 18 19 19 19 19 19
18 18 21 23 31 28 28 25 23 19 19 17 18 21 20 18 17 17 17 18 17 18 20 22 23 20 21 14 15 17 17 17 18 19 17 16 17 19 20 18 19 19 19 20 19